Voltar ao catálogo

STARLINK-3819

AtivoComunicaçõesVLEO
NORAD 52349·PAYLOAD·🇺🇸 United States

Lançado Apr 29, 2022 de Cape Canaveral Space Force Station

Loading…

Próximas Passagens (próximas 24 horas)

TLE

AtualizadoSource: CelesTrak SupGP

Época: Sep 15, 2026, 02:50 UTC

1 52349C 22045U   26258.11854167 -.00030867  00000+0 -88340-3 0  2581
2 52349  53.1590  54.7135 0001275  86.8700  97.2536 15.35404296    19

Acompanhe STARLINK-3819 em tempo real com AllMySat

Download on the App Store